Tracking 19827 objects as of 22-Aug-2019
HD Live streaming from Space Station
objects crossing your sky now

COSMOS 528

Track COSMOS 528 now!
10-day predictions
COSMOS 528 is classified as:


NORAD ID: 6262
Int'l Code: 1972-087A
Perigee: 1,373.4 km
Apogee: 1,473.9 km
Inclination: 74.0 °
Period: 114.1 minutes
Semi major axis: 7794 km
RCS: 0.7007 m2 (medium)
Launch date: November 1, 1972
Source: Commonwealth of Independent States (former USSR) (CIS)
Launch site: PLESETSK MISSILE AND SPACE COMPLEX (PKMTR)
aabbcc
Your satellite tracking list
Your tracking list is empty




NASA's NSSDC Master Catalog

Two Line Element Set (TLE):
1  6262U 72087A   19233.64482987 -.00000013  00000-0  14029-4 0  9991
2  6262  74.0339 283.1077 0064467 117.3203   0.4215 12.61566155155580
Source of the keplerian elements: AFSPC